This is the latest recevied weather packets stored in our database for station/object LU4EGV-13. If no packets are shown the sender has not sent any weather packets the latest 10 day(s).
| Time | Temp. | Humidity | Pressure | Rain* | Wind** | Luminosity | Snow |
|---|---|---|---|---|---|---|---|
| 1777914067 | 22.22° C | 35% | 1009.3 hPa | 0 mm | - | - | - |
| 1777913455 | 22.78° C | 31% | 1009.1 hPa | 0 mm | - | - | - |
| 1777912850 | 22.78° C | 33% | 1009.3 hPa | 0 mm | - | - | - |
| 1777912243 | 22.22° C | 38% | 1009.7 hPa | 0 mm | - | - | - |
| 1777911636 | 22.22° C | 37% | 1010.1 hPa | 0 mm | - | - | - |
| 1777911032 | 21.11° C | 39% | 1010.2 hPa | 0 mm | - | - | - |
| 1777910431 | 21.11° C | 40% | 1010.4 hPa | 0 mm | - | - | - |
| 1777909823 | 20.56° C | 42% | 1010.5 hPa | 0 mm | - | - | - |
| 1777909212 | 20.56° C | 41% | 1010.4 hPa | 0 mm | - | - | - |
| 1777908612 | 20° C | 44% | 1010.6 hPa | 0 mm | - | - | - |
| 1777908000 | 19.44° C | 43% | 1010.9 hPa | 0 mm | - | - | - |
| 1777907393 | 20° C | 46% | 1010.9 hPa | 0 mm | - | - | - |
| 1777906787 | 19.44° C | 46% | 1010.6 hPa | 0 mm | - | - | - |
| 1777906188 | 19.44° C | 44% | 1010.5 hPa | 0 mm | - | - | - |
| 1777905576 | 18.89° C | 48% | 1010.6 hPa | 0 mm | - | - | - |
| 1777904970 | 18.89° C | 47% | 1010.6 hPa | 0 mm | - | - | - |
| 1777904363 | 18.33° C | 48% | 1010.7 hPa | 0 mm | - | - | - |
| 1777903759 | 18.33° C | 47% | 1010.7 hPa | 0 mm | - | - | - |
| 1777903150 | 18.33° C | 47% | 1010.7 hPa | 0 mm | - | - | - |
| 1777902544 | 17.78° C | 48% | 1010.9 hPa | 0 mm | - | - | - |
| 1777901938 | 17.78° C | 48% | 1011.1 hPa | 0 mm | - | - | - |
| 1777901343 | 17.22° C | 50% | 1011 hPa | 0 mm | - | - | - |
| 1777900725 | 16.67° C | 52% | 1011.5 hPa | 0 mm | - | - | - |
| 1777900120 | 16.67° C | 52% | 1011.3 hPa | 0 mm | - | - | - |
| 1777899515 | 16.67° C | 53% | 1011.3 hPa | 0 mm | - | - | - |
* Rain latest hour (hover to see other rain measurements)
** Current wind speed in m/s (hover to see current wind gust speed)